#timestamp,LO_Frequency,Hit,StdDev 
1640340015.5,286046999.8,N
1640340035.3,286047001.9,N
1640340055.1,286047001.5,N
1640340075.9,286047004.1,N
1640340095.7,286047001.6,N
1640340115.5,286047004.3,N
1640340135.4,286047001.6,N
1640340155.2,286047002.2,N
1640340175.1,286047002.7,N
1640340176.0,286047002.7,N
1640340195.8,286046999.7,N
1640340215.6,286047001.9,N
1640340235.5,286047002.4,N
1640340255.3,286047011.9,Y
1640340275.2,286046999.3,P
1640340295.9,286046998.7,N
1640340315.7,286046998.3,N
1640340335.6,286046998.2,N
1640340355.4,286046998.8,N
1640340375.3,286046996.5,Y
1640340395.1,286047000.5,P
1640340396.0,286047000.5,N
1640340415.8,286047002.7,P
1640340435.7,286047002.6,N
1640340455.5,286047002.7,N
1640340475.3,286047000.1,N
1640340495.2,286047000.9,N
1640340515.0,286046999.4,N
1640340515.9,286046999.4,N
1640340535.8,286046999.3,N
1640340555.6,286047001.0,N
1640340575.4,286047000.4,N
1640340595.3,286046999.7,N
1640340615.1,286046999.9,N
1640340635.8,286046999.9,N
1640340655.7,286047000.4,N
1640340675.5,286047001.1,N
1640340695.4,286047000.4,N
1640340715.2,286047001.0,N
1640340735.0,286047001.0,N
1640340735.9,286047001.0,N
1640340755.8,286047000.5,N
1640340775.6,286047000.0,N
1640340795.5,286047000.5,N
1640340815.3,286046998.7,N
1640340835.1,286047000.3,N
1640340855.9,286047000.3,N
1640340875.7,286047000.1,N
1640340895.5,286047002.8,N
1640340915.4,286046999.7,N
1640340935.2,286047000.1,N
1640340955.1,286047000.7,N
1640340956.0,286047000.7,N
1640340975.8,286047000.7,N
1640340995.6,286047001.0,N
1640341015.5,286047001.1,N
1640341035.3,286047000.7,N
1640341055.2,286046998.2,N
1640341075.9,286047000.5,N
1640341095.7,286047001.1,N
1640341115.6,286047000.6,N
1640341135.4,286047000.7,N
1640341155.2,286047000.3,N
1640341175.1,286047000.3,N
1640341176.0,286047000.3,N
1640341195.8,286047000.0,N
1640341215.7,286047002.8,Y
1640341235.5,286047002.3,P
1640341255.3,286047000.9,N
1640341275.2,286046999.9,N
1640341295.0,286046998.5,N
1640341295.9,286046998.5,N
1640341315.8,286047000.9,N
1640341335.6,286046998.6,N
1640341355.4,286047001.2,N
1640341375.3,286047000.5,N
1640341395.1,286047000.4,N
1640341415.9,286047000.1,N
1640341435.7,286047000.6,N
1640341455.5,286046999.8,N
1640341475.4,286047002.6,N
1640341495.2,286047000.5,N
1640341515.0,286047000.5,N
1640341515.9,286047000.5,N
1640341535.8,286046999.9,N
1640341555.6,286047000.9,N
1640341575.5,286046998.2,N
1640341595.3,286047000.8,N
1640341615.1,286047000.5,N
1640341635.9,286047000.5,N
1640341655.7,286047000.2,N
1640341675.5,286047000.5,N
1640341695.4,286047002.7,N
1640341715.2,286047000.1,N
1640341735.1,286047002.3,N
1640341736.0,286047002.3,N
1640341755.8,286047002.5,N
1640341775.6,286047002.2,N
1640341795.5,286047000.0,N
1640341815.3,286047000.5,N
1640341835.1,286047000.6,N
1640341855.9,286047000.9,N
1640341875.7,286046998.2,N
1640341895.6,286046998.5,N
1640341915.4,286047001.0,N
1640341935.2,286047000.6,N
1640341955.1,286047000.0,N
1640341956.0,286047000.0,N
1640341975.8,286046999.7,N
1640341995.6,286047000.5,N
1640342015.5,286047001.0,N
1640342035.3,286047000.3,N
1640342055.2,286046999.9,N
1640342075.0,286047002.0,N
1640342075.9,286047002.0,N
1640342095.8,286047002.7,N
1640342115.6,286047002.2,N
1640342135.4,286047002.1,N
1640342155.3,286047000.0,N
1640342175.1,286047002.8,N
1640342195.9,286047000.9,N
1640342215.7,286047001.4,N
1640342235.5,286047015.3,Y
1640342255.4,286047010.0,P
1640342275.2,286047012.1,N
1640342295.0,286047010.2,N
1640342296.0,286047010.2,N
1640342315.8,286047006.7,N
1640342335.6,286047006.0,N
1640342355.5,286047001.3,N
1640342375.3,286047004.0,N
1640342395.1,286046999.8,N
1640342415.9,286047000.5,N
1640342435.7,286047000.0,N
1640342455.6,286047001.0,N
1640342475.4,286046998.8,N
1640342495.2,286046999.0,N
1640342515.1,286046998.6,N
1640342516.0,286046998.6,N
1640342535.8,286047001.0,N
1640342555.6,286047001.2,N
1640342575.5,286046999.2,N
1640342595.3,286046996.7,N
1640342615.2,286046996.7,N
1640342635.9,286046995.0,N
1640342655.7,286046995.2,N
1640342675.6,286046993.3,N
1640342695.4,286046996.2,N
1640342715.3,286046995.5,N
1640342735.1,286046995.4,N
1640342736.0,286046995.4,N
1640342755.8,286046998.0,N
1640342775.7,286046997.8,N
1640342795.5,286046997.4,N
1640342815.3,286046997.5,N
1640342835.2,286046995.4,N
1640342855.0,286046995.1,N
1640342855.9,286046995.1,N
1640342875.8,286046995.7,N
1640342895.6,286046995.4,N
1640342915.4,286046995.6,N
1640342935.3,286046995.7,N
1640342955.1,286046995.9,N
1640342975.8,286046995.6,N
1640342995.7,286046995.2,N
1640343015.5,286046995.4,N
1640343035.4,286046995.5,N
1640343055.2,286046998.0,N
1640343075.0,286046996.7,N
1640343075.9,286046996.7,N
1640343095.8,286046997.5,N
1640343115.6,286046997.9,N
1640343135.5,286046995.8,Y
1640343155.3,286046998.1,P
1640343175.1,286047000.9,N
1640343195.9,286047000.2,N
1640343215.7,286046999.8,N
1640343235.5,286046999.8,N
1640343255.4,286046999.7,N
1640343275.2,286047002.6,N
1640343295.1,286046999.8,N
1640343296.0,286046999.8,N
1640343315.8,286047002.4,N
1640343335.6,286047001.6,N
1640343355.5,286047002.6,N
1640343375.3,286046999.8,N
1640343395.1,286046999.7,N
1640343415.9,286047000.2,N
1640343435.7,286047002.7,N
1640343455.6,286047001.4,N
1640343475.4,286047001.8,N
1640343495.2,286047002.1,N
1640343515.1,286047002.6,N
1640343516.0,286047002.6,N
1640343535.8,286047001.8,N
1640343555.7,286047001.6,N
1640343575.5,286047001.7,N
1640343595.3,286047001.9,N
